EW7757 Weather Reports


Display with metric or nautical units.
time (UTC)temp
F
wind
direction
speed
MPH
gust
MPH
rain 1hr
in
rain 24hr
in
rain mn
in
humidity
%
barometer
mb
20220930033013 55 180 0.0 18.0 0.00 0.02 0.02 73 1023.0
20220930031517 56 180 1.0 13.0 0.00 0.02 0.02 70 1023.2
20220930030018 56 180 0.0 8.0 0.00 0.02 0.02 72 1023.3
20220930023016 56 180 0.0 9.0 0.00 0.02 0.02 74 1023.3
20220930021515 57 180 0.0 6.0 0.00 0.02 0.02 69 1023.4
20220930020035 56 180 0.0 9.0 0.00 0.02 0.02 67 1023.6
20220930013007 55 86 1.0 11.0 0.01 0.02 0.02 71 1023.9
20220930011505 54 180 1.0 14.0 0.01 0.02 0.02 70 1024.2
20220930010015 53 180 0.0 4.0 0.01 0.02 0.02 71 1024.2
20220930003003 53 180 0.0 10.0 0.00 0.01 0.01 71 1024.4
20220930001603 54 180 0.0 0.0 0.00 0.01 0.01 70 1024.5
20220930000056 52 180 0.0 6.0 0.00 0.01 0.01 70 1024.6
20220929233046 51 180 0.0 9.0 0.00 0.01 0.01 77 1024.8
20220929231554 50 180 0.0 11.0 0.00 0.01 0.01 78 1024.9
20220929230104 50 180 0.0 5.0 0.00 0.01 0.01 78 1024.9
20220929223042 49 180 0.0 3.0 0.00 0.01 0.01 81 1024.8
20220929221600 48 180 0.0 1.0 0.00 0.01 0.01 80 1024.6
20220929220042 48 180 0.0 0.0 0.00 0.02 0.01 81 1024.3
20220929213046 47 180 0.0 0.0 0.00 0.02 0.01 79 1024.0
20220929211545 47 180 0.0 0.0 0.00 0.02 0.01 80 1023.7
20220929210034 47 180 0.0 0.0 0.00 0.02 0.01 80 1023.7
20220929203036 45 180 0.0 0.0 0.00 0.02 0.01 86 1023.4
20220929201543 45 180 0.0 0.0 0.00 0.02 0.01 86 1023.1
20220929200033 45 180 0.0 0.0 0.00 0.02 0.01 87 1023.0
20220929193012 45 180 0.0 0.0 0.00 0.02 0.01 88 1022.6
20220929191514 45 180 0.0 0.0 0.00 0.02 0.01 88 1022.4
20220929190016 45 180 0.0 0.0 0.00 0.02 0.01 87 1022.1
20220929183006 45 180 0.0 8.0 0.01 0.02 0.01 88 1022.0
20220929181508 45 180 0.0 3.0 0.01 0.02 0.01 88 1022.0
20220929180001 45 180 0.0 0.0 0.01 0.02 0.01 88 1021.8
20220929173017 45 180 0.0 4.0 0.00 0.01 0.00 87 1021.8
20220929171532 44 180 0.0 0.0 0.00 0.01 0.00 87 1021.7
20220929170005 44 180 0.0 0.0 0.00 0.01 0.00 87 1021.6
20220929163013 44 180 0.0 0.0 0.00 0.01 0.00 86 1021.6
20220929161508 44 180 0.0 2.0 0.00 0.01 0.00 85 1021.8
20220929160006 44 180 0.0 9.0 0.00 0.02 0.00 85 1021.9
20220929153011 44 180 0.0 0.0 0.00 0.02 0.00 84 1021.9
20220929151529 44 180 0.0 0.0 0.00 0.02 0.00 84 1022.1
20220929150007 44 180 0.0 1.0 0.00 0.02 0.00 84 1022.1
20220929143050 44 180 0.0 0.0 0.00 0.02 0.00 84 1022.1
20220929141549 44 180 0.0 0.0 0.00 0.02 0.00 84 1022.5
20220929140048 44 180 0.0 0.0 0.00 0.02 0.02 84 1022.4
20220929134646 44 180 0.0 0.0 0.00 0.02 0.02 83 1022.4
20220929133052 45 180 0.0 0.0 0.00 0.02 0.02 84 1022.5
20220929131551 45 180 0.0 0.0 0.00 0.02 0.02 85 1022.3
20220929130102 45 180 0.0 0.0 0.00 0.02 0.02 86 1022.3
20220929124650 45 180 0.0 0.0 0.00 0.02 0.02 87 1022.7
20220929123104 45 180 0.0 0.0 0.00 0.02 0.02 88 1022.6
20220929121610 45 180 0.0 0.0 0.00 0.02 0.02 89 1022.7
20220929120119 45 180 0.0 0.0 0.00 0.02 0.02 90 1022.7
20220929114657 45 180 0.0 0.0 0.00 0.02 0.02 91 1022.5
20220929113010 45 180 0.0 0.0 0.00 0.02 0.02 91 1022.4
20220929111509 45 180 0.0 0.0 0.00 0.02 0.02 92 1022.3
20220929110016 46 180 0.0 0.0 0.00 0.02 0.02 92 1022.4
20220929103100 47 180 0.0 0.0 0.00 0.02 0.02 93 1022.0
20220929101600 47 180 0.0 0.0 0.00 0.02 0.02 93 1021.8
20220929100108 47 180 0.0 0.0 0.00 0.05 0.02 93 1021.8
20220929094700 47 180 0.0 0.0 0.00 0.05 0.02 93 1021.5
20220929093054 47 180 0.0 0.0 0.00 0.05 0.02 93 1021.5
20220929091602 48 180 0.0 4.0 0.00 0.05 0.02 92 1021.2
20220929090053 48 180 0.0 0.0 0.00 0.10 0.02 92 1020.9
20220929084648 48 180 0.0 1.0 0.00 0.10 0.02 92 1020.6
20220929083046 49 180 0.0 0.0 0.00 0.10 0.02 92 1020.5
20220929081545 49 180 0.0 0.0 0.00 0.10 0.02 91 1020.3
20220929080045 49 180 0.0 0.0 0.00 0.14 0.02 91 1020.2
20220929074643 50 180 0.0 1.0 0.00 0.14 0.02 89 1019.9
20220929073055 50 180 0.0 10.0 0.00 0.14 0.02 89 1019.8
20220929071545 52 180 0.0 0.0 0.00 0.14 0.02 87 1019.6
20220929070043 53 180 0.0 5.0 0.00 0.19 0.02 83 1019.3
20220929064641 55 180 0.0 0.0 0.00 0.19 0.02 79 1018.9
20220929063033 56 180 0.0 0.0 0.00 0.19 0.02 74 1018.7
20220929061529 58 229 0.0 7.0 0.00 0.19 0.02 69 1018.6
20220929060034 57 180 0.0 3.0 0.00 0.24 0.02 65 1018.4
20220929054628 58 180 0.0 0.0 0.00 0.24 0.02 66 1018.3
20220929053028 58 119 0.0 1.0 0.00 0.24 0.02 69 1018.2
20220929051529 57 180 0.0 5.0 0.00 0.24 0.02 69 1018.2
20220929050024 58 111 0.0 15.0 0.00 0.28 0.02 68 1018.3
20220929044622 58 154 0.0 5.0 0.00 0.28 0.02 69 1018.3
20220929043015 57 180 0.0 10.0 0.00 0.28 0.02 74 1018.3
20220929041514 57 180 0.0 8.0 0.00 0.28 0.02 69 1018.3
20220929040042 57 180 0.0 0.0 0.00 0.31 0.02 72 1018.5
20220929034616 55 180 0.0 12.0 0.00 0.31 0.02 77 1018.3